Date String (YYYY-MM-DD hh:mm:ss) UTC,Instrument flags,Ambient pressure (hPa),Sample flow (lpm),Bypass flow (lpm),Sample temperature (°C),Ambient temperature (°C),ASC tube jacket temperature (°C),LED temperature (°C),Box temperature (°C),Sample RH (%),Span deviation,Mass concentration (μg/m³),Mass concentration (μg/m³),Mass concentration (μg/m³)
DateTimeUTC,F1_M11,P_M11,Q1_M11,Q2_M11,T1_M11,T2_M11,T3_M11,T4_M11,T5_M11,U1_M11,ZSPAN_M11,X0_M11,X2_M11,X1_M11
2022-03-12 14:00:00,,0825.8,4.99,0.00,21.7,21.9,00.0,30.8,23.5,09.0,0000.0,0004.52,0001.14,0000.74
2022-03-12 14:01:00,,0825.8,5.01,0.00,21.9,22.9,00.0,30.9,23.9,09.0,0000.0,0004.61,0001.17,0000.73
2022-03-12 14:02:00,,0825.7,5.00,0.00,22.1,23.0,00.0,30.9,24.0,09.1,0000.0,0004.75,0001.21,0000.72
2022-03-12 14:03:00,,0825.8,4.99,0.00,22.1,22.7,00.0,30.9,24.0,09.1,0000.0,0004.31,0001.19,0000.73
2022-03-12 14:04:00,,0825.7,5.00,0.00,22.1,22.4,00.0,31.0,23.9,09.3,0000.0,0003.20,0001.14,0000.73
2022-03-12 14:05:00,,0825.7,4.99,0.00,22.1,22.2,00.0,31.0,23.9,09.3,0000.0,0002.47,0001.12,0000.72
2022-03-12 14:06:00,,0825.8,5.00,0.00,22.1,22.0,00.0,31.0,23.8,09.3,0000.0,0002.18,0001.05,0000.71
2022-03-12 14:07:00,,0825.8,5.00,0.00,22.1,21.8,00.0,31.0,23.7,09.3,0000.0,0002.06,0001.05,0000.71
2022-03-12 14:08:00,,0825.9,4.99,0.00,22.0,21.7,00.0,31.0,23.7,09.6,0000.0,0002.12,0001.06,0000.72
2022-03-12 14:09:00,,0825.8,5.00,0.00,22.0,21.6,00.0,31.0,23.7,09.3,0000.0,0002.44,0001.08,0000.72
2022-03-12 14:10:00,,0825.8,5.01,0.00,22.0,21.5,00.0,31.0,23.6,09.5,0000.0,0003.03,0001.09,0000.72
2022-03-12 14:11:00,,0825.8,5.00,0.00,22.0,21.4,00.0,31.0,23.6,09.1,0000.0,0003.08,0001.12,0000.72
2022-03-12 14:12:00,,0825.7,5.00,0.00,22.0,21.4,00.0,31.0,23.6,09.3,0000.0,0003.05,0001.12,0000.73
2022-03-12 14:13:00,,0825.7,5.00,0.00,22.0,21.3,00.0,31.0,23.6,09.2,0000.0,0003.00,0001.10,0000.74
2022-03-12 14:14:00,,0825.8,5.00,0.00,21.9,21.3,00.0,31.0,23.6,09.3,0000.0,0003.01,0001.11,0000.74
2022-03-12 14:15:00,,0825.8,5.00,0.00,21.9,21.3,00.0,31.0,23.6,09.6,0000.0,0003.08,0001.14,0000.75
2022-03-12 14:16:00,,0825.8,5.00,0.00,21.9,21.2,00.0,31.0,23.6,09.6,0000.0,0003.05,0001.14,0000.76
2022-03-12 14:17:00,,0825.9,5.00,0.00,21.9,21.2,00.0,31.0,23.5,09.4,0000.0,0003.11,0001.17,0000.77
2022-03-12 14:18:00,,0825.9,5.00,0.00,21.9,21.2,00.0,30.9,23.5,09.3,0000.0,0003.14,0001.17,0000.76
2022-03-12 14:19:00,,0825.9,5.01,0.00,21.9,21.9,00.0,31.0,23.7,09.2,0000.0,0003.20,0001.15,0000.76
2022-03-12 14:20:00,,0825.9,5.00,0.00,22.1,22.9,00.0,31.0,24.1,08.7,0000.0,0002.65,0001.17,0000.77
2022-03-12 14:21:00,,0825.8,5.00,0.00,22.3,23.2,00.0,31.1,24.2,08.7,0000.0,0002.29,0001.17,0000.77
2022-03-12 14:22:00,,0825.9,4.99,0.00,22.3,22.9,00.0,31.1,24.1,08.7,0000.0,0002.78,0001.18,0000.77
2022-03-12 14:23:00,,0825.9,5.01,0.00,22.3,22.6,00.0,31.1,24.1,09.0,0000.0,0002.78,0001.18,0000.77
2022-03-12 14:24:00,,0825.8,4.99,0.00,22.2,22.3,00.0,31.1,24.0,09.1,0000.0,0002.67,0001.14,0000.76
2022-03-12 14:25:00,,0825.8,4.99,0.00,22.2,22.1,00.0,31.1,23.9,08.7,0000.0,0002.66,0001.14,0000.77
2022-03-12 14:26:00,,0825.8,5.00,0.00,22.2,21.9,00.0,31.1,23.8,09.1,0000.0,0002.61,0001.12,0000.76
2022-03-12 14:27:00,,0825.9,5.01,0.00,22.1,21.8,00.0,31.1,23.8,09.1,0000.0,0002.67,0001.12,0000.76
2022-03-12 14:28:00,,0825.9,5.01,0.00,22.1,21.7,00.0,31.1,23.7,08.9,0000.0,0002.66,0001.13,0000.75
2022-03-12 14:29:00,,0825.9,4.99,0.00,22.1,21.6,00.0,31.1,23.7,08.8,0000.0,0002.66,0001.13,0000.75
2022-03-12 14:30:00,,0825.9,4.99,0.00,22.0,21.5,00.0,31.1,23.7,09.1,0000.0,0002.49,0001.10,0000.74
2022-03-12 14:31:00,,0826.0,5.01,0.00,22.0,21.4,00.0,31.1,23.6,08.9,0000.0,0002.41,0001.06,0000.73
2022-03-12 14:32:00,,0826.0,5.01,0.00,22.0,21.4,00.0,31.1,23.6,09.1,0000.0,0002.39,0001.08,0000.73
2022-03-12 14:33:00,,0826.0,5.00,0.00,22.0,21.3,00.0,31.1,23.6,09.2,0000.0,0001.83,0001.06,0000.72
2022-03-12 14:34:00,,0826.0,5.00,0.00,22.0,21.3,00.0,31.1,23.6,09.5,0000.0,0001.74,0001.02,0000.72
2022-03-12 14:35:00,,0826.0,5.01,0.00,22.0,21.3,00.0,31.1,23.6,09.1,0000.0,0001.83,0001.04,0000.71
2022-03-12 14:36:00,,0826.0,5.00,0.00,22.0,21.3,00.0,31.1,23.6,09.1,0000.0,0001.93,0001.06,0000.71
2022-03-12 14:37:00,,0826.0,5.00,0.00,22.0,21.3,00.0,31.0,23.6,08.9,0000.0,0002.09,0001.11,0000.70
2022-03-12 14:38:00,,0826.0,5.01,0.00,22.0,21.7,00.0,31.0,23.7,09.0,0000.0,0001.97,0001.08,0000.70
2022-03-12 14:39:00,,0826.1,5.00,0.00,22.1,22.8,00.0,31.1,24.1,09.3,0000.0,0001.93,0001.07,0000.69
2022-03-12 14:40:00,,0826.1,5.00,0.00,22.3,23.3,00.0,31.1,24.3,09.2,0000.0,0001.87,0001.06,0000.69
2022-03-12 14:41:00,,0826.1,5.00,0.00,22.4,23.1,00.0,31.2,24.3,09.2,0000.0,0001.88,0001.06,0000.69
2022-03-12 14:42:00,,0826.0,4.99,0.00,22.4,22.9,00.0,31.2,24.3,09.5,0000.0,0001.86,0001.07,0000.70
2022-03-12 14:43:00,,0826.0,5.00,0.00,22.4,22.7,00.0,31.2,24.3,09.0,0000.0,0001.78,0001.03,0000.69
2022-03-12 14:44:00,,0825.9,5.00,0.00,22.4,22.5,00.0,31.2,24.3,09.3,0000.0,0001.73,0000.99,0000.69
2022-03-12 14:45:00,,0825.9,5.00,0.00,22.4,22.3,00.0,31.3,24.3,09.0,0000.0,0002.24,0001.00,0000.68
2022-03-12 14:46:00,,0825.9,5.00,0.00,22.4,22.2,00.0,31.3,24.2,09.2,0000.0,0002.37,0001.02,0000.69
2022-03-12 14:47:00,,0825.9,5.00,0.00,22.4,22.1,00.0,31.3,24.2,09.1,0000.0,0002.25,0001.01,0000.70
2022-03-12 14:48:00,,0825.9,4.99,0.00,22.4,22.1,00.0,31.3,24.2,08.9,0000.0,0002.13,0000.96,0000.70
2022-03-12 14:49:00,,0825.9,5.02,0.00,22.4,22.0,00.0,31.3,24.2,08.8,0000.0,0002.19,0000.99,0000.70
2022-03-12 14:50:00,,0825.9,5.00,0.00,22.4,21.9,00.0,31.3,24.1,08.8,0000.0,0002.16,0000.97,0000.70
2022-03-12 14:51:00,,0825.9,4.99,0.00,22.4,21.8,00.0,31.3,24.1,08.8,0000.0,0002.17,0000.97,0000.70
2022-03-12 14:52:00,,0826.0,5.01,0.00,22.3,21.8,00.0,31.3,24.1,09.0,0000.0,0002.24,0000.98,0000.71
2022-03-12 14:53:00,,0826.0,5.01,0.00,22.3,21.8,00.0,31.3,24.0,09.1,0000.0,0002.24,0000.97,0000.70
2022-03-12 14:54:00,,0826.0,4.99,0.00,22.3,21.8,00.0,31.3,24.0,08.9,0000.0,0002.36,0001.00,0000.70
2022-03-12 14:55:00,,0826.0,5.01,0.00,22.3,21.7,00.0,31.3,24.0,09.0,0000.0,0002.39,0001.01,0000.70
2022-03-12 14:56:00,,0826.0,5.02,0.00,22.3,21.7,00.0,31.3,24.0,09.2,0000.0,0002.32,0001.06,0000.71
2022-03-12 14:57:00,,0826.0,4.99,0.00,22.3,21.7,00.0,31.3,24.0,09.3,0000.0,0002.21,0001.06,0000.71
2022-03-12 14:58:00,,0826.0,4.99,0.00,22.3,21.7,00.0,31.3,24.0,08.9,0000.0,0002.32,0001.11,0000.71
2022-03-12 14:59:00,,0826.0,4.99,0.00,22.3,21.7,00.0,31.3,24.0,08.8,0000.0,0002.48,0001.12,0000.71
